Location: *
(50.6089°N, 2.2719°E)
Time: 20:35:07
(UTC+00:00)

STARLINK-53 - Pass Details

Date: 18 October 2019
Orbit: 550 x 552 km, 53.0° (Epoch: 20 November)

Event Time Altitude Azimuth Distance (km) Brightness Sun altitude
Rises 19:13:40 0° 275° (W) 2,723 8.6 -22.9°
Reaches altitude 10° 19:15:55 10° 279° (W) 1,829 7.4 -23.2°
Enters shadow 19:19:55 61° 351° (N) 632 3.9 -23.9°
